Location: Buena Vista Beach
(41.8098°N, 81.1279°W)
Time: 22:03:05
(UTC+00:00)

SMAP - Pass Details

Date: 29 October 2020
Orbit: 681 x 683 km, 98.1° (Epoch: 29 November)

Event Time Altitude Azimuth Distance (km) Brightness Sun altitude
Rises 22:54:46 0° 169° (S) 3,030 6.4 -6.7°
Reaches altitude 10° 22:57:00 10° 171° (S) 2,120 5.7 -7.1°
Maximum altitude 23:01:38 77° 257° (WSW) 706 3.3 -8.0°
Drops below altitude 10° 23:06:19 10° 344° (NNW) 2,135 5.7 -8.8°
Sets 23:08:34 0° 346° (NNW) 3,055 6.5 -9.3°
